This demonstration page uses our WeatherBlox Daily Observations layout. Learn more.

Left ArrowRight Arrow

36.17497, -115.13722

Hourly Observations for March 19, 2016

Temp ( °F °C ) Dew Point ( °F °C ) Humidity (%) Winds ( mph kmh ) Pressure ( in mb ) Visibility ( mi km ) Precip ( " mm )
12:53 am 00:53 Clear 59 15 23 -5 25 25 NNW 3 6 29.96 1015 10 16.0934 0 0
1:53 am 01:53 Clear 59 15 24 -4.4 26 26 N 6 9 29.97 1015 10 16.0934 0 0
2:53 am 02:53 Clear 58 14.4 22 -5.6 25 25 WNW 6 9 29.97 1015 10 16.0934 0 0
3:53 am 03:53 Clear 55 12.8 25 -3.9 31 31 NW 3 6 29.98 1015 10 16.0934 0 0
4:53 am 04:53 Clear 56 13.3 25 -3.9 30 30 SW 3 6 29.99 1016 10 16.0934 0 0
5:53 am 05:53 Clear 57 13.9 23 -5 27 27 W 5 7 30.01 1016 10 16.0934 0 0
6:53 am 06:53 Sunny 57 13.9 22 -5.6 26 26 SW 6 9 30.04 1017 10 16.0934 0 0
7:53 am 07:53 Sunny 56 13.3 26 -3.3 32 32 N 5 7 30.06 1018 10 16.0934 0 0
8:53 am 08:53 Sunny 64 17.8 24 -4.4 22 22 S 7 11 30.07 1018 10 16.0934 0 0
9:53 am 09:53 Sunny 67 19.4 23 -5 19 19 SE 7 11 30.08 1019 10 16.0934 0 0
10:53 am 10:53 Sunny 70 21.1 22 -5.6 16 16 Calm 30.08 1019 10 16.0934 0 0
11:53 am 11:53 Sunny 73 22.8 21 -6.1 14 14 VRB 7 11 30.06 1018 10 16.0934 0 0
12:53 pm 12:53 Sunny 76 24.4 19 -7.2 12 12 VRB 6 9 30.04 1017 10 16.0934 0 0
1:53 pm 13:53 Sunny 79 26.1 20 -6.7 11 11 E 9 15 30 1016 10 16.0934 0 0
3:53 pm 15:53 Sunny 80 26.7 20 -6.7 10 10 SE 8 13 29.96 1015 10 16.0934 0 0
4:53 pm 16:53 Sunny 81 27.2 19 -7.2 10 10 ESE 7 11 29.94 1014 10 16.0934 0 0
5:53 pm 17:53 Sunny 81 27.2 19 -7.2 10 10 E 5 7 29.93 1014 10 16.0934 0 0
7:53 pm 19:53 Clear 75 23.9 20 -6.7 12 12 E 7 11 29.95 1014 10 16.0934 0 0
9:53 pm 21:53 Clear 70 21 23 -5 17 17 Calm 29.88 1012 10 16.0934 0 0
10:53 pm 22:53 Clear 66 18.9 27 -2.8 23 23 Calm 29.98 1015 10 16.0934 0 0
11:53 pm 23:53 Clear 65 18.3 26 -3.3 23 23 W 3 6 29.98 1015 10 16.0934 0 0

Powered by AerisWeather